Flag for India Weather past 2 weeks in Kolkata, West Bengal, India

Now
84 °F

Fog.


Feels Like: 98 °F
Forecast: 82 / 96 °F
Wind: No wind

Location: Calcutta / Dum Dum

Current Time: Sep 4, 2015 at 5:37:04 AM

Latest Report: Sep 4, 2015 at 4:50 AM


Visibility: 1 mi

Pressure: 29.74 "Hg

Humidity: 89%

Dew point: 81 °F

Location of KolkataLocation

Historic Weather in Kolkata — Graph

°F

Kolkata temperature yesterday

Maximum temperature yesterday: 93 °F (at 12:50 PM)
Minimum temperature yesterday: 77 °F (at 12:20 AM)
Average temperature yesterday: 85 °F

Past Weeks' High & Low Weather Summary

 TemperatureHumidityPressure
High95 °F (Aug 24, 2:20 PM)100% (Aug 29, 2:50 AM)29.77 "Hg (Aug 29, 2:50 AM)
Low77 °F (Sep 2, 7:20 PM)56% (Aug 22, 2:50 PM)29.47 "Hg (Aug 22, 2:50 PM)
Average86 °F85%29.58 "Hg
* Reported Aug 20 3:50 AM — Sep 4 4:20 AM, Kolkata, Weather by CustomWeather, © 2015

Note: Actual official high and low records may vary slightly from our data, if they occured in-between our weather recording intervals... More about our weather records

Advertising

Kolkata weather history for previous 24 hours

 ConditionsComfort  
Time TempWeatherWind HumidityBarometerVisibility
4:20 AM
Fri, Sep 4
84 °FFog.3 mph89%29.74 "Hg1 mi
3:50 AM84 °FFog.5 mph89%29.74 "Hg1 mi
2:50 AM84 °FPassing clouds.3 mph89%29.77 "Hg2 mi
2:20 AM84 °FPassing clouds.3 mph89%29.74 "Hg2 mi
1:50 AM84 °FPassing clouds.3 mph89%29.74 "Hg2 mi
1:20 AM84 °FPassing clouds.3 mph89%29.74 "Hg2 mi
12:50 AM84 °FPassing clouds.3 mph89%29.74 "Hg2 mi
12:20 AM84 °FPassing clouds.3 mph89%29.74 "Hg2 mi
11:50 PM
Thu, Sep 3
84 °FPassing clouds.3 mph89%29.74 "Hg2 mi
11:20 PM84 °FPassing clouds.2 mph89%29.74 "Hg2 mi
10:50 PM84 °FPassing clouds.5 mph89%29.74 "Hg2 mi
10:20 PM84 °FPassing clouds.6 mph89%29.74 "Hg2 mi
9:50 PM84 °FPassing clouds.7 mph89%29.74 "Hg2 mi
8:50 PM86 °FPassing clouds.8 mph84%29.74 "Hg2 mi
8:20 PM86 °FPassing clouds.8 mph89%29.74 "Hg2 mi
7:20 PM88 °FPassing clouds.6 mph84%29.71 "Hg2 mi
6:50 PM88 °FPassing clouds.8 mph84%29.68 "Hg2 mi
6:20 PM90 °FScattered clouds.8 mph79%29.68 "Hg2 mi
5:50 PM90 °FScattered clouds.8 mph79%29.65 "Hg2 mi
5:20 PM90 °FScattered clouds.7 mph79%29.65 "Hg2 mi
4:50 PM91 °FScattered clouds.7 mph71%29.65 "Hg2 mi
4:20 PM91 °FScattered clouds.7 mph71%29.65 "Hg2 mi
3:20 PM90 °FBroken clouds.9 mph75%29.62 "Hg2 mi
2:50 PM91 °FBroken clouds.10 mph71%29.65 "Hg2 mi
2:20 PM91 °FBroken clouds.8 mph75%29.65 "Hg2 mi
1:50 PM91 °FBroken clouds.7 mph71%29.68 "Hg2 mi
1:20 PM91 °FBroken clouds.7 mph71%29.68 "Hg2 mi
12:50 PM93 °FScattered clouds.5 mph67%29.68 "Hg2 mi
12:20 PM91 °FScattered clouds.5 mph71%29.71 "Hg2 mi
11:50 AM91 °FScattered clouds.6 mph71%29.71 "Hg2 mi
11:20 AM91 °FScattered clouds.7 mph71%29.71 "Hg2 mi
10:50 AM90 °FBroken clouds.6 mph75%29.71 "Hg2 mi
10:20 AM88 °FBroken clouds.7 mph79%29.71 "Hg2 mi
9:20 AM86 °FBroken clouds.8 mph84%29.74 "Hg2 mi
8:50 AM84 °FBroken clouds.7 mph89%29.74 "Hg2 mi
8:20 AM84 °FBroken clouds.5 mph89%29.71 "Hg2 mi
7:50 AM82 °FBroken clouds.5 mph89%29.71 "Hg2 mi
7:20 AM82 °FBroken clouds.6 mph89%29.71 "Hg2 mi
6:50 AM81 °FBroken clouds.5 mph89%29.68 "Hg2 mi
6:20 AM79 °FFog.5 mph94%29.68 "Hg2 mi
5:50 AM79 °FFog.6 mph94%29.65 "Hg1 mi
5:20 AM77 °FFog.5 mph94%29.65 "Hg1 mi
Weather by CustomWeather, © 2015

See weather overviewHow to use our weather pages